,,PA_Meas_PMT16A,,PR_Meas_QMR101_102,,RH_Meas_QMH101,,SR_Meas_QMS101,,TA_Meas_QMH101,,GenWind,,GenWind,
time,status,PA,status,PR,status,RH,status,SR,status,TA,status,DirAvg,status,SpdAvg,
2014-04-03, 16:06:04,VALID,915.689,VALID,0,VALID,91.3438,VALID,40.7202,VALID,22.1379,VALID,16,VALID,1.58672,
2014-04-03, 16:07:04,VALID,915.73,VALID,0,VALID,92.0985,VALID,47.1667,VALID,22.1574,VALID,8,VALID,1.43867,
2014-04-03, 16:08:04,VALID,915.747,VALID,0,VALID,92.0299,VALID,47.8113,VALID,22.0794,VALID,57,VALID,1.90391,
2014-04-03, 16:09:04,VALID,915.785,VALID,0.2,VALID,91.9079,VALID,39.4309,VALID,21.9428,VALID,35,VALID,1.70195,
2014-04-03, 16:10:04,VALID,915.811,VALID,0,VALID,92.5483,VALID,37.6044,VALID,21.9054,VALID,2,VALID,2.12891,
2014-04-03, 16:11:04,VALID,915.817,VALID,0.2,VALID,92.4492,VALID,38.3565,VALID,21.8062,VALID,328,VALID,1.85586,
2014-04-03, 16:12:04,VALID,915.846,VALID,0.2,VALID,93.2725,VALID,45.9848,VALID,21.8274,VALID,344,VALID,1.46602,
2014-04-03, 16:13:04,VALID,915.874,VALID,0.6,VALID,92.8608,VALID,45.2327,VALID,21.6306,VALID,343,VALID,2.24844,
2014-04-03, 16:14:04,VALID,915.855,VALID,0.8,VALID,93.0895,VALID,42.6541,VALID,21.5136,VALID,343,VALID,1.95234,
2014-04-03, 16:15:04,VALID,915.904,VALID,0.6,VALID,93.951,VALID,37.1746,VALID,21.4941,VALID,17,VALID,1.42148,
2014-04-03, 16:16:04,VALID,915.948,VALID,0.4,VALID,94.2635,VALID,36.3151,VALID,21.4941,VALID,13,VALID,1.76367,
2014-04-03, 16:17:04,VALID,915.968,VALID,0.6,VALID,94.3245,VALID,34.8109,VALID,21.416,VALID,44,VALID,0.569531,
2014-04-03, 16:18:04,VALID,915.969,VALID,0.4,VALID,94.4617,VALID,34.1663,VALID,21.3575,VALID,40,VALID,2.11953,
2014-04-03, 16:19:04,VALID,916.017,VALID,0.4,VALID,94.6905,VALID,35.0258,VALID,21.3575,VALID,37,VALID,2.21016,
2014-04-03, 16:20:04,VALID,916.054,VALID,0.2,VALID,94.9115,VALID,35.563,VALID,21.4372,VALID,28,VALID,1.87969,
2014-04-03, 16:21:04,VALID,916.059,VALID,0.4,VALID,94.9344,VALID,35.6705,VALID,21.416,VALID,16,VALID,1.93086,
2014-04-03, 16:22:04,VALID,916.049,VALID,0,VALID,95.0411,VALID,38.4639,VALID,21.4355,VALID,25,VALID,1.01055,
2014-04-03, 16:23:04,VALID,916.031,VALID,0.2,VALID,95.0869,VALID,36.2077,VALID,21.3965,VALID,19,VALID,1.69102,
2014-04-03, 16:24:04,VALID,916.062,VALID,0,VALID,95.186,VALID,34.5961,VALID,21.4355,VALID,29,VALID,1.70859,
2014-04-03, 16:25:04,VALID,916.035,VALID,0.2,VALID,95.247,VALID,38.7863,VALID,21.4355,VALID,29,VALID,1.39883,
2014-04-03, 16:26:04,VALID,916.016,VALID,0,VALID,95.2393,VALID,40.9351,VALID,21.416,VALID,37,VALID,2.19297,
2014-04-03, 16:27:04,VALID,916.043,VALID,0,VALID,95.3003,VALID,33.9514,VALID,21.4567,VALID,345,VALID,1.125,
2014-04-03, 16:28:04,VALID,916.063,VALID,0,VALID,95.3308,VALID,33.5216,VALID,21.4355,VALID,15,VALID,1.91562,
2014-04-03, 16:29:04,VALID,916.061,VALID,0,VALID,95.3613,VALID,35.3481,VALID,21.416,VALID,31,VALID,1.98516,
2014-04-03, 16:30:04,VALID,916.083,VALID,0,VALID,95.3918,VALID,33.0919,VALID,21.3981,VALID,48,VALID,1.52578,
2014-04-03, 16:31:04,VALID,916.099,VALID,0,VALID,95.3308,VALID,31.4803,VALID,21.2811,VALID,28,VALID,2.01836,
2014-04-03, 16:32:04,VALID,916.061,VALID,0,VALID,95.3461,VALID,36.4226,VALID,21.221,VALID,28,VALID,2.11836,
2014-04-03, 16:33:04,VALID,916.091,VALID,0,VALID,95.3842,VALID,35.6705,VALID,21.2015,VALID,31,VALID,1.78828,
2014-04-03, 16:34:04,VALID,916.033,VALID,0.2,VALID,95.3994,VALID,37.1746,VALID,21.1429,VALID,14,VALID,2.4707,
2014-04-03, 16:35:04,VALID,915.998,VALID,0,VALID,95.4528,VALID,39.0011,VALID,21.164,VALID,26,VALID,2.17656,
2014-04-03, 16:36:04,VALID,916.002,VALID,0,VALID,95.5214,VALID,41.9021,VALID,21.2226,VALID,33,VALID,1.59609,
2014-04-03, 16:37:04,VALID,915.97,VALID,0,VALID,95.5748,VALID,40.6128,VALID,21.221,VALID,15,VALID,1.73398,
2014-04-03, 16:38:04,VALID,915.961,VALID,0,VALID,95.5519,VALID,42.869,VALID,21.125,VALID,13,VALID,1.41719,
2014-04-03, 16:39:04,VALID,915.94,VALID,0,VALID,95.5748,VALID,47.9188,VALID,21.164,VALID,14,VALID,1.94219,
2014-04-03, 16:40:04,VALID,915.954,VALID,0,VALID,95.6053,VALID,44.9104,VALID,21.2421,VALID,20,VALID,1.48477,
2014-04-03, 16:41:04,VALID,915.899,VALID,0,VALID,95.651,VALID,43.0839,VALID,21.2226,VALID,15,VALID,0.977734,
2014-04-03, 16:42:04,VALID,915.897,VALID,0,VALID,95.651,VALID,45.555,VALID,21.164,VALID,353,VALID,0.4,
2014-04-03, 16:43:04,VALID,915.87,VALID,0,VALID,95.6815,VALID,47.7039,VALID,21.2031,VALID,322,VALID,0.720703,
2014-04-03, 16:44:04,VALID,915.837,VALID,0,VALID,95.6891,VALID,44.9104,VALID,21.2031,VALID,303,VALID,0.439453,
2014-04-03, 16:45:04,VALID,915.87,VALID,0,VALID,95.7044,VALID,48.456,VALID,21.2421,VALID,3,VALID,0.380859,
2014-04-03, 16:46:04,VALID,915.854,VALID,0,VALID,95.7501,VALID,43.2988,VALID,21.2811,VALID,3,VALID,0.463281,
2014-04-03, 16:47:04,VALID,915.862,VALID,0,VALID,95.7654,VALID,41.2574,VALID,21.2616,VALID,3,VALID,0.273828,
2014-04-03, 16:48:04,VALID,915.863,VALID,0,VALID,95.773,VALID,42.7616,VALID,21.2616,VALID,6,VALID,0.474609,
2014-04-03, 16:49:04,VALID,915.888,VALID,0,VALID,95.7654,VALID,45.2327,VALID,21.3006,VALID,11,VALID,1.58555,
2014-04-03, 16:50:04,VALID,915.883,VALID,0,VALID,95.7958,VALID,49.208,VALID,21.3201,VALID,330,VALID,0.8125,
2014-04-03, 16:51:04,VALID,915.9,VALID,0,VALID,95.8187,VALID,52.109,VALID,21.3201,VALID,19,VALID,1.44648,
2014-04-03, 16:52:04,VALID,915.885,VALID,0,VALID,95.8111,VALID,48.8857,VALID,21.3591,VALID,16,VALID,1.25937,
2014-04-03, 16:53:04,VALID,915.927,VALID,0,VALID,95.8263,VALID,48.3485,VALID,21.3201,VALID,23,VALID,0.360156,
2014-04-03, 16:54:04,VALID,915.929,VALID,0,VALID,95.834,VALID,53.6131,VALID,21.2811,VALID,23,VALID,0.959766,
2014-04-03, 16:55:04,VALID,915.937,VALID,0,VALID,95.8111,VALID,55.0099,VALID,21.3201,VALID,45,VALID,1.24258,
2014-04-03, 16:56:04,VALID,915.992,VALID,0,VALID,95.8416,VALID,54.3652,VALID,21.3396,VALID,22,VALID,0.449609,
2014-04-03, 16:57:04,VALID,916.035,VALID,0,VALID,95.8416,VALID,48.6708,VALID,21.3965,VALID,21,VALID,0.313281,
2014-04-03, 16:58:04,VALID,916.063,VALID,0,VALID,95.8492,VALID,44.2658,VALID,21.4177,VALID,21,VALID,1.07891,
2014-04-03, 16:59:04,VALID,916.079,VALID,0,VALID,95.8645,VALID,43.1913,VALID,21.3981,VALID,21,VALID,0.713281,
2014-04-03, 17:00:04,VALID,916.092,VALID,0,VALID,95.8492,VALID,44.9104,VALID,21.3396,VALID,18,VALID,0.565234,
2014-04-03, 17:01:04,VALID,916.073,VALID,0,VALID,95.8492,VALID,42.3318,VALID,21.3575,VALID,15,VALID,0.852344,
2014-04-03, 17:02:04,VALID,916.087,VALID,0,VALID,95.8797,VALID,39.8607,VALID,21.3591,VALID,11,VALID,1.00391,
2014-04-03, 17:03:04,VALID,916.046,VALID,0,VALID,95.8721,VALID,38.6788,VALID,21.3006,VALID,11,VALID,0.460547,
2014-04-03, 17:04:04,VALID,916.043,VALID,0,VALID,95.8721,VALID,40.5053,VALID,21.3022,VALID,11,VALID,0.204688,
2014-04-03, 17:05:04,VALID,916.05,VALID,0,VALID,95.8797,VALID,44.3732,VALID,21.3006,VALID,11,VALID,0.59375,
2014-04-03, 17:06:04,VALID,916.036,VALID,0,VALID,95.895,VALID,44.0509,VALID,21.3006,VALID,16,VALID,0.747656,
2014-04-03, 17:07:04,VALID,916.051,VALID,0,VALID,95.8873,VALID,43.0839,VALID,21.2421,VALID,9,VALID,0.632813,
2014-04-03, 17:08:04,VALID,916.076,VALID,0,VALID,95.9026,VALID,44.4806,VALID,21.3396,VALID,24,VALID,1.17734,
2014-04-03, 17:09:04,VALID,916.087,VALID,0,VALID,95.9102,VALID,46.8443,VALID,21.3981,VALID,10,VALID,1.61055,
2014-04-03, 17:10:04,VALID,916.082,VALID,0.2,VALID,95.9102,VALID,48.1336,VALID,21.2616,VALID,13,VALID,1.25469,
2014-04-03, 17:11:04,VALID,916.122,VALID,0,VALID,95.9026,VALID,47.7039,VALID,21.3396,VALID,360,VALID,1.17266,
2014-04-03, 17:12:04,VALID,916.206,VALID,0,VALID,95.9026,VALID,45.8774,VALID,21.2421,VALID,18,VALID,0.922266,
2014-04-03, 17:13:04,VALID,916.201,VALID,0,VALID,95.9026,VALID,45.7699,VALID,21.2811,VALID,14,VALID,0.601563,
2014-04-03, 17:14:04,VALID,916.205,VALID,0,VALID,95.9331,VALID,46.1997,VALID,21.3396,VALID,5,VALID,0.605078,
2014-04-03, 17:15:04,VALID,916.224,VALID,0,VALID,95.9331,VALID,44.2658,VALID,21.3006,VALID,6,VALID,1.50937,
2014-04-03, 17:16:04,VALID,916.218,VALID,0,VALID,95.9331,VALID,44.6955,VALID,21.2031,VALID,13,VALID,2.23164,
2014-04-03, 17:17:04,VALID,916.224,VALID,0,VALID,95.9254,VALID,45.4476,VALID,21.2242,VALID,20,VALID,1.75195,
2014-04-03, 17:18:04,VALID,916.239,VALID,0,VALID,95.9407,VALID,47.489,VALID,21.2437,VALID,16,VALID,1.63477,
2014-04-03, 17:19:04,VALID,916.231,VALID,0,VALID,95.9559,VALID,49.4229,VALID,21.3006,VALID,354,VALID,1.14805,
2014-04-03, 17:20:04,VALID,916.274,VALID,0,VALID,95.9712,VALID,46.6295,VALID,21.3201,VALID,10,VALID,1.48594,
2014-04-03, 17:21:04,VALID,916.285,VALID,0,VALID,95.9636,VALID,51.142,VALID,21.3022,VALID,18,VALID,1.63398,
2014-04-03, 17:22:04,VALID,916.305,VALID,0,VALID,95.9712,VALID,49.9601,VALID,21.2421,VALID,34,VALID,1.55352,
2014-04-03, 17:23:04,VALID,916.335,VALID,0,VALID,95.9636,VALID,47.7039,VALID,21.1445,VALID,21,VALID,1.23477,
2014-04-03, 17:24:04,VALID,916.364,VALID,0,VALID,95.9559,VALID,38.5714,VALID,21.2031,VALID,8,VALID,1.07187,
2014-04-03, 17:25:04,VALID,916.335,VALID,0,VALID,95.9483,VALID,34.1663,VALID,21.0876,VALID,8,VALID,0.758203,
2014-04-03, 17:26:04,VALID,916.329,VALID,0,VALID,95.9559,VALID,30.5133,VALID,21.1071,VALID,11,VALID,0.920313,
2014-04-03, 17:27:04,VALID,916.319,VALID,0,VALID,95.9788,VALID,29.8686,VALID,21.1836,VALID,7,VALID,1.22539,
2014-04-03, 17:28:04,VALID,916.295,VALID,0,VALID,96.0093,VALID,30.7282,VALID,21.2242,VALID,346,VALID,0.466016,
2014-04-03, 17:29:04,VALID,916.276,VALID,0,VALID,96.0093,VALID,29.8686,VALID,21.2242,VALID,23,VALID,0.991406,
2014-04-03, 17:30:04,VALID,916.278,VALID,0,VALID,95.9941,VALID,26.0008,VALID,21.2437,VALID,7,VALID,0.834375,
2014-04-03, 17:31:04,VALID,916.249,VALID,0,VALID,96.0398,VALID,25.571,VALID,21.1852,VALID,29,VALID,1.39766,
2014-04-03, 17:32:04,VALID,916.252,VALID,0,VALID,96.0093,VALID,26.6454,VALID,21.1852,VALID,36,VALID,0.767187,
2014-04-03, 17:33:04,VALID,916.287,VALID,0,VALID,96.0245,VALID,26.4305,VALID,21.2047,VALID,33,VALID,0.138281,
2014-04-03, 17:34:04,VALID,916.282,VALID,0,VALID,96.0398,VALID,29.7612,VALID,21.1657,VALID,33,VALID,0.36875,
2014-04-03, 17:35:04,VALID,916.236,VALID,0,VALID,96.0398,VALID,29.224,VALID,21.1055,VALID,27,VALID,1.14844,
2014-04-03, 17:36:04,VALID,916.261,VALID,0,VALID,96.0398,VALID,31.0505,VALID,21.1266,VALID,11,VALID,0.941406,
2014-04-03, 17:37:04,VALID,916.292,VALID,0,VALID,96.0398,VALID,28.6868,VALID,21.1055,VALID,13,VALID,0.555078,
2014-04-03, 17:38:04,VALID,916.25,VALID,0,VALID,96.0322,VALID,26.6454,VALID,21.164,VALID,16,VALID,0.853516,
2014-04-03, 17:39:04,VALID,916.247,VALID,0,VALID,96.0245,VALID,26.538,VALID,21.2437,VALID,10,VALID,1.025,
2014-04-03, 17:40:04,VALID,916.284,VALID,0,VALID,96.0474,VALID,27.5049,VALID,21.2827,VALID,23,VALID,1.64492,
2014-04-03, 17:41:04,VALID,916.298,VALID,0,VALID,96.055,VALID,27.3975,VALID,21.1657,VALID,13,VALID,0.970703,
2014-04-03, 17:42:04,VALID,916.277,VALID,0,VALID,96.0474,VALID,26.7528,VALID,21.1657,VALID,26,VALID,1.49766,
2014-04-03, 17:43:04,VALID,916.332,VALID,0,VALID,96.0322,VALID,31.91,VALID,21.1657,VALID,24,VALID,1.47812,
2014-04-03, 17:44:04,VALID,916.338,VALID,0,VALID,96.0627,VALID,32.7696,VALID,21.2047,VALID,29,VALID,1.09727,
2014-04-03, 17:45:04,VALID,916.397,VALID,0,VALID,96.0703,VALID,26.7528,VALID,21.2047,VALID,34,VALID,1.19766,
2014-04-03, 17:46:04,VALID,916.392,VALID,0,VALID,96.0779,VALID,18.9096,VALID,21.2437,VALID,40,VALID,1.10781,
2014-04-03, 17:47:04,VALID,916.445,VALID,0,VALID,96.0627,VALID,16.8683,VALID,21.1852,VALID,30,VALID,1.42852,
2014-04-03, 17:48:04,VALID,916.476,VALID,0,VALID,96.0703,VALID,16.6534,VALID,21.1868,VALID,23,VALID,0.944922,
2014-04-03, 17:49:04,VALID,916.525,VALID,0,VALID,96.0779,VALID,14.1822,VALID,21.1461,VALID,22,VALID,0.553125,
2014-04-03, 17:50:04,VALID,916.531,VALID,0,VALID,96.0855,VALID,13.3227,VALID,21.125,VALID,21,VALID,0.676172,
2014-04-03, 17:51:04,VALID,916.554,VALID,0,VALID,96.0779,VALID,13.645,VALID,21.1836,VALID,21,VALID,0.507031,
2014-04-03, 17:52:04,VALID,916.526,VALID,0,VALID,96.0855,VALID,14.3971,VALID,21.1836,VALID,18,VALID,0.980859,
2014-04-03, 17:53:04,VALID,916.544,VALID,0,VALID,96.0932,VALID,15.2566,VALID,21.086,VALID,16,VALID,0.816406,
2014-04-03, 17:54:04,VALID,916.546,VALID,0,VALID,96.0932,VALID,16.6534,VALID,21.0665,VALID,28,VALID,0.648438,
2014-04-03, 17:55:04,VALID,916.512,VALID,0,VALID,96.0932,VALID,15.579,VALID,21.0275,VALID,28,VALID,0.946094,
2014-04-03, 17:56:04,VALID,916.54,VALID,0,VALID,96.0855,VALID,14.9343,VALID,21.047,VALID,26,VALID,0.864062,
2014-04-03, 17:57:04,VALID,916.534,VALID,0,VALID,96.0932,VALID,14.2897,VALID,21.0665,VALID,28,VALID,0.963281,
2014-04-03, 17:58:04,VALID,916.554,VALID,0,VALID,96.1008,VALID,13.5376,VALID,21.0275,VALID,16,VALID,1.00664,
2014-04-03, 17:59:04,VALID,916.554,VALID,0,VALID,96.1313,VALID,14.612,VALID,20.9479,VALID,16,VALID,1.00039,
2014-04-03, 18:00:04,VALID,916.574,VALID,0,VALID,96.0932,VALID,15.579,VALID,21.008,VALID,17,VALID,0.790625,
2014-04-03, 18:01:04,VALID,916.559,VALID,0,VALID,96.1084,VALID,16.1162,VALID,21.0665,VALID,17,VALID,1.01563,
2014-04-03, 18:02:04,VALID,916.561,VALID,0,VALID,96.1084,VALID,15.3641,VALID,21.0275,VALID,16,VALID,0.794531,
2014-04-03, 18:03:04,VALID,916.59,VALID,0,VALID,96.1008,VALID,15.1492,VALID,20.969,VALID,16,VALID,1.22187,
2014-04-03, 18:04:04,VALID,916.597,VALID,0,VALID,96.116,VALID,15.3641,VALID,20.969,VALID,8,VALID,0.903125,
2014-04-03, 18:05:04,VALID,916.616,VALID,0,VALID,96.116,VALID,14.5046,VALID,20.9901,VALID,22,VALID,0.901172,
2014-04-03, 18:06:04,VALID,916.625,VALID,0,VALID,96.1313,VALID,13.7525,VALID,21.008,VALID,17,VALID,1.06445,
2014-04-03, 18:07:04,VALID,916.627,VALID,0,VALID,96.1236,VALID,13.3227,VALID,20.9885,VALID,18,VALID,0.626172,
2014-04-03, 18:08:04,VALID,916.654,VALID,0,VALID,96.1236,VALID,13.0004,VALID,21.008,VALID,18,VALID,0.577344,
2014-04-03, 18:09:04,VALID,916.644,VALID,0,VALID,96.1236,VALID,13.3227,VALID,21.125,VALID,17,VALID,0.572266,
2014-04-03, 18:10:04,VALID,916.642,VALID,0,VALID,96.1236,VALID,14.1822,VALID,21.1657,VALID,18,VALID,0.347266,
2014-04-03, 18:11:04,VALID,916.66,VALID,0,VALID,96.1313,VALID,13.645,VALID,21.1055,VALID,17,VALID,0.105078,
2014-04-03, 18:12:04,VALID,916.65,VALID,0,VALID,96.1541,VALID,12.6781,VALID,21.0844,VALID,18,VALID,0.640234,
2014-04-03, 18:13:04,VALID,916.661,VALID,0,VALID,96.1541,VALID,11.8185,VALID,21.1071,VALID,18,VALID,0.440625,
2014-04-03, 18:14:04,VALID,916.654,VALID,0,VALID,96.1465,VALID,10.5292,VALID,21.0259,VALID,18,VALID,0.344922,
2014-04-03, 18:15:04,VALID,916.644,VALID,0,VALID,96.1465,VALID,9.23994,VALID,20.9885,VALID,17,VALID,0.536719,
2014-04-03, 18:16:04,VALID,916.673,VALID,0,VALID,96.1313,VALID,8.16553,VALID,21.008,VALID,16,VALID,0.584766,
2014-04-03, 18:17:04,VALID,916.643,VALID,0,VALID,96.1465,VALID,7.73576,VALID,20.9885,VALID,16,VALID,0.532031,
2014-04-03, 18:18:04,VALID,916.686,VALID,0,VALID,96.1618,VALID,6.98368,VALID,20.969,VALID,16,VALID,0.617578,
2014-04-03, 18:19:04,VALID,916.682,VALID,0,VALID,96.1389,VALID,6.0167,VALID,20.93,VALID,311,VALID,1.15586,
2014-04-03, 18:20:04,VALID,916.722,VALID,0,VALID,96.1389,VALID,4.94229,VALID,20.9316,VALID,314,VALID,0.414844,
2014-04-03, 18:21:04,VALID,916.716,VALID,0,VALID,96.1465,VALID,4.08276,VALID,20.969,VALID,314,VALID,0.592969,
2014-04-03, 18:22:04,VALID,916.731,VALID,0,VALID,96.1541,VALID,3.33068,VALID,20.969,VALID,314,VALID,0.238281,
2014-04-03, 18:23:04,VALID,916.726,VALID,0,VALID,96.1465,VALID,2.68603,VALID,20.969,VALID,314,VALID,0.00195313,
2014-04-03, 18:24:04,VALID,916.76,VALID,0,VALID,96.1618,VALID,2.57859,VALID,20.9674,VALID,314,VALID,0.0558594,
2014-04-03, 18:25:04,VALID,916.765,VALID,0,VALID,96.1694,VALID,2.47115,VALID,20.9885,VALID,314,VALID,0.417578,
2014-04-03, 18:26:04,VALID,916.787,VALID,0,VALID,96.1618,VALID,2.04138,VALID,21.047,VALID,314,VALID,0.435937,
2014-04-03, 18:27:04,VALID,916.798,VALID,0,VALID,96.1694,VALID,1.50418,VALID,21.0665,VALID,314,VALID,0.408594,
2014-04-03, 18:28:04,VALID,916.795,VALID,0,VALID,96.1694,VALID,1.18185,VALID,21.086,VALID,314,VALID,0.176563,
2014-04-03, 18:29:04,VALID,916.825,VALID,0,VALID,96.1618,VALID,0.859529,VALID,21.1055,VALID,314,VALID,0.35625,
2014-04-03, 18:30:04,VALID,916.857,VALID,0,VALID,96.1846,VALID,0.752088,VALID,21.1055,VALID,314,VALID,0.345313,
2014-04-03, 18:31:04,VALID,916.876,VALID,0,VALID,96.1541,VALID,0.537206,VALID,21.1055,VALID,314,VALID,0.370313,
2014-04-03, 18:32:04,VALID,916.929,VALID,0,VALID,96.177,VALID,0.322323,VALID,21.086,VALID,314,VALID,0.526563,
2014-04-03, 18:33:04,VALID,916.956,VALID,0,VALID,96.1465,VALID,0.322323,VALID,21.1055,VALID,315,VALID,0.517969,
2014-04-03, 18:34:04,VALID,917.008,VALID,0,VALID,96.1541,VALID,0.322323,VALID,21.1055,VALID,315,VALID,0.528516,
2014-04-03, 18:35:04,VALID,916.996,VALID,0,VALID,96.1618,VALID,0.214882,VALID,21.1461,VALID,315,VALID,0.316406,
2014-04-03, 18:36:04,VALID,917.016,VALID,0,VALID,96.1541,VALID,0.214882,VALID,21.1445,VALID,315,VALID,0.251563,
2014-04-03, 18:37:04,VALID,917.038,VALID,0,VALID,96.1694,VALID,0.107441,VALID,21.1445,VALID,322,VALID,0.728906,
2014-04-03, 18:38:04,VALID,917.062,VALID,0,VALID,96.1618,VALID,0.107441,VALID,21.164,VALID,332,VALID,0.705859,
2014-04-03, 18:39:04,VALID,917.074,VALID,0,VALID,96.1618,VALID,0.107441,VALID,21.1657,VALID,4,VALID,0.858984,
2014-04-03, 18:40:04,VALID,917.077,VALID,0,VALID,96.1618,VALID,0.107441,VALID,21.1266,VALID,21,VALID,1.20313,
2014-04-03, 18:41:04,VALID,917.09,VALID,0,VALID,96.177,VALID,0.107441,VALID,21.1266,VALID,17,VALID,1.14688,
2014-04-03, 18:42:04,VALID,917.088,VALID,0,VALID,96.1618,VALID,0,VALID,21.1071,VALID,17,VALID,0.683984,
2014-04-03, 18:43:04,VALID,917.102,VALID,0,VALID,96.1694,VALID,0,VALID,21.047,VALID,17,VALID,1.04258,
2014-04-03, 18:44:04,VALID,917.098,VALID,0,VALID,96.1465,VALID,0.107441,VALID,21.008,VALID,48,VALID,1.13984,
2014-04-03, 18:45:04,VALID,917.113,VALID,0,VALID,96.1618,VALID,0,VALID,20.9511,VALID,31,VALID,1.05742,
2014-04-03, 18:46:04,VALID,917.152,VALID,0,VALID,96.1618,VALID,0,VALID,20.93,VALID,30,VALID,0.865234,
2014-04-03, 18:47:04,VALID,917.142,VALID,0,VALID,96.1465,VALID,0.107441,VALID,20.9105,VALID,7,VALID,0.733203,
2014-04-03, 18:48:04,VALID,917.154,VALID,0,VALID,96.1541,VALID,0,VALID,20.93,VALID,35,VALID,0.519141,
2014-04-03, 18:49:04,VALID,917.161,VALID,0,VALID,96.1541,VALID,0,VALID,20.93,VALID,28,VALID,0.674219,
2014-04-03, 18:50:04,VALID,917.179,VALID,0,VALID,96.1618,VALID,0,VALID,20.891,VALID,23,VALID,0.419141,
2014-04-03, 18:51:04,VALID,917.143,VALID,0,VALID,96.1694,VALID,0,VALID,20.8714,VALID,24,VALID,0.423438,
2014-04-03, 18:52:04,VALID,917.142,VALID,0,VALID,96.1694,VALID,0,VALID,20.891,VALID,24,VALID,0.542188,
2014-04-03, 18:53:04,VALID,917.121,VALID,0,VALID,96.1694,VALID,0,VALID,20.8714,VALID,23,VALID,0.576172,
2014-04-03, 18:54:04,VALID,917.158,VALID,0,VALID,96.1618,VALID,0,VALID,20.912,VALID,23,VALID,0.247656,
2014-04-03, 18:55:04,VALID,917.172,VALID,0,VALID,96.1694,VALID,0,VALID,20.8309,VALID,23,VALID,0.357812,
2014-04-03, 18:56:04,VALID,917.182,VALID,0,VALID,96.1694,VALID,0,VALID,20.8129,VALID,23,VALID,0.378516,
2014-04-03, 18:57:04,VALID,917.219,VALID,0,VALID,96.1694,VALID,0,VALID,20.7739,VALID,332,VALID,0.250391,
2014-04-03, 18:58:04,VALID,917.229,VALID,0,VALID,96.177,VALID,0,VALID,20.7739,VALID,332,VALID,0.0125,
2014-04-03, 18:59:04,VALID,917.246,VALID,0,VALID,96.1846,VALID,0,VALID,20.8535,VALID,339,VALID,0.792578,
2014-04-03, 19:00:04,VALID,917.276,VALID,0,VALID,96.1846,VALID,0,VALID,20.8324,VALID,9,VALID,0.559375,
2014-04-03, 19:01:04,VALID,917.282,VALID,0,VALID,96.1846,VALID,0,VALID,20.8324,VALID,7,VALID,0.193359,
2014-04-03, 19:02:04,VALID,917.301,VALID,0,VALID,96.1923,VALID,0,VALID,20.8519,VALID,7,VALID,0.705469,
2014-04-03, 19:03:04,VALID,917.316,VALID,0,VALID,96.1846,VALID,0,VALID,20.8714,VALID,8,VALID,0.812891,
2014-04-03, 19:04:04,VALID,917.337,VALID,0,VALID,96.1923,VALID,0,VALID,20.9316,VALID,8,VALID,0.998047,
2014-04-03, 19:05:04,VALID,917.375,VALID,0,VALID,96.1923,VALID,0,VALID,20.93,VALID,9,VALID,1.0582,
2014-04-03, 19:06:04,VALID,917.398,VALID,0,VALID,96.1923,VALID,0,VALID,20.8535,VALID,9,VALID,1.14492,
2014-04-03, 19:07:04,VALID,917.419,VALID,0,VALID,96.2075,VALID,0,VALID,20.8145,VALID,3,VALID,1.20195,
2014-04-03, 19:08:04,VALID,917.46,VALID,0,VALID,96.1999,VALID,0,VALID,20.795,VALID,342,VALID,1.25078,
2014-04-03, 19:09:04,VALID,917.449,VALID,0,VALID,96.1923,VALID,0,VALID,20.7771,VALID,349,VALID,1.55664,
2014-04-03, 19:10:04,VALID,917.499,VALID,0,VALID,96.1999,VALID,0,VALID,20.7365,VALID,13,VALID,0.758984,
2014-04-03, 19:11:04,VALID,917.488,VALID,0,VALID,96.1846,VALID,0,VALID,20.717,VALID,320,VALID,0.760547,
2014-04-03, 19:12:04,VALID,917.495,VALID,0,VALID,96.1846,VALID,0,VALID,20.756,VALID,347,VALID,0.700781,
2014-04-03, 19:13:04,VALID,917.509,VALID,0,VALID,96.1923,VALID,0,VALID,20.7576,VALID,350,VALID,0.867969,
2014-04-03, 19:14:04,VALID,917.494,VALID,0,VALID,96.1999,VALID,0,VALID,20.756,VALID,2,VALID,0.966016,
2014-04-03, 19:15:04,VALID,917.474,VALID,0,VALID,96.2075,VALID,0,VALID,20.7771,VALID,6,VALID,0.774219,
2014-04-03, 19:16:04,VALID,917.454,VALID,0,VALID,96.2151,VALID,0,VALID,20.756,VALID,6,VALID,1.06641,
2014-04-03, 19:17:04,VALID,917.448,VALID,0,VALID,96.2075,VALID,0,VALID,20.756,VALID,6,VALID,0.416797,
2014-04-03, 19:18:04,VALID,917.425,VALID,0,VALID,96.1999,VALID,0,VALID,20.7966,VALID,6,VALID,0.123047,
2014-04-03, 19:19:04,VALID,917.403,VALID,0,VALID,96.1999,VALID,0,VALID,20.756,VALID,6,VALID,0.214453,
2014-04-03, 19:20:04,VALID,917.412,VALID,0,VALID,96.1923,VALID,0,VALID,20.717,VALID,6,VALID,0.350391,
2014-04-03, 19:21:04,VALID,917.395,VALID,0,VALID,96.2075,VALID,0,VALID,20.7154,VALID,6,VALID,0.328906,
2014-04-03, 19:22:04,VALID,917.396,VALID,0,VALID,96.1999,VALID,0,VALID,20.756,VALID,6,VALID,0.207031,
2014-04-03, 19:23:04,VALID,917.404,VALID,0,VALID,96.1999,VALID,0,VALID,20.7739,VALID,6,VALID,0.309766,
2014-04-03, 19:24:04,VALID,917.422,VALID,0,VALID,96.2075,VALID,0,VALID,20.8145,VALID,6,VALID,0.315234,
2014-04-03, 19:25:04,VALID,917.462,VALID,0,VALID,96.1923,VALID,0,VALID,20.8519,VALID,6,VALID,0.594922,
2014-04-03, 19:26:04,VALID,917.51,VALID,0,VALID,96.2075,VALID,0,VALID,20.8535,VALID,6,VALID,0.0734375,
2014-04-03, 19:27:04,VALID,917.503,VALID,0,VALID,96.2075,VALID,0,VALID,20.8535,VALID,6,VALID,0.435156,
2014-04-03, 19:28:04,VALID,917.525,VALID,0,VALID,96.2151,VALID,0,VALID,20.8535,VALID,6,VALID,0.479688,
2014-04-03, 19:29:04,VALID,917.574,VALID,0,VALID,96.2456,VALID,0,VALID,20.8145,VALID,6,VALID,0.482812,
2014-04-03, 19:30:04,VALID,917.553,VALID,0,VALID,96.2228,VALID,0,VALID,20.834,VALID,6,VALID,0.455078,
2014-04-03, 19:31:04,VALID,917.538,VALID,0,VALID,96.2228,VALID,0,VALID,20.8145,VALID,6,VALID,0.501172,
2014-04-03, 19:32:04,VALID,917.588,VALID,0,VALID,96.2228,VALID,0,VALID,20.795,VALID,6,VALID,0.269922,
2014-04-03, 19:33:04,VALID,917.611,VALID,0,VALID,96.1999,VALID,0,VALID,20.7934,VALID,6,VALID,0.271875,
2014-04-03, 19:34:04,VALID,917.64,VALID,0,VALID,96.2228,VALID,0,VALID,20.7349,VALID,346,VALID,0.315625,
2014-04-03, 19:35:04,VALID,917.677,VALID,0,VALID,96.1999,VALID,0,VALID,20.7365,VALID,346,VALID,0.3875,
2014-04-03, 19:36:04,VALID,917.748,VALID,0,VALID,96.2151,VALID,0,VALID,20.717,VALID,342,VALID,0.714844,
2014-04-03, 19:37:04,VALID,917.802,VALID,0,VALID,96.1846,VALID,0,VALID,20.678,VALID,355,VALID,0.891016,
2014-04-03, 19:38:04,VALID,917.825,VALID,0,VALID,96.2075,VALID,0,VALID,20.6975,VALID,3,VALID,0.763281,
2014-04-03, 19:39:04,VALID,917.909,VALID,0,VALID,96.2151,VALID,0,VALID,20.7154,VALID,3,VALID,1.23008,
2014-04-03, 19:40:04,VALID,917.9,VALID,0,VALID,96.2151,VALID,0,VALID,20.6959,VALID,355,VALID,0.896094,
2014-04-03, 19:41:04,VALID,917.91,VALID,0,VALID,96.2151,VALID,0,VALID,20.6764,VALID,2,VALID,0.888281,
2014-04-03, 19:42:04,VALID,917.917,VALID,0,VALID,96.2075,VALID,0,VALID,20.7154,VALID,345,VALID,0.988672,
2014-04-03, 19:43:04,VALID,917.908,VALID,0,VALID,96.1999,VALID,0,VALID,20.6975,VALID,10,VALID,0.905859,
2014-04-03, 19:44:04,VALID,917.859,VALID,0,VALID,96.2151,VALID,0,VALID,20.6569,VALID,348,VALID,1.13281,